• En España
  • Lista de países
  • Para 7 días
  • Temperatura del agua
  • Mapa Satelital
  • El tiempo en el mapa
  • Informadores
  • user-avatar
    Iniciar sesión

    Tiempo cada hora Ershi

    Hoy, 15 Agosto, Miércoles

    Tiempo Temperatura Precipitaciones Viento Presión Humedad
    00:00 +13°C° 0 mm 2 mps 740 mmHg 92%
    01:00 +13°C° 0 mm 2 mps 740 mmHg 94%
    02:00 +12°C° 0 mm 2 mps 740 mmHg 95%
    03:00 +12°C° 0 mm 2 mps 740 mmHg 95%
    04:00 +12°C° 0 mm 2 mps 740 mmHg 96%
    05:00 +13°C° 0 mm 2 mps 740 mmHg 93%
    06:00 +13°C° 0 mm 2 mps 741 mmHg 90%
    07:00 +13°C° 0 mm 3 mps 741 mmHg 87%
    08:00 +16°C° 0 mm 3 mps 741 mmHg 79%
    09:00 +18°C° 0 mm 3 mps 741 mmHg 71%
    10:00 +19°C° 0 mm 3 mps 741 mmHg 62%
    11:00 +20°C° 0 mm 3 mps 741 mmHg 59%
    12:00 +21°C° 0 mm 4 mps 741 mmHg 56%
    13:00 +21°C° 0 mm 4 mps 741 mmHg 53%
    14:00 +22°C° 0 mm 4 mps 742 mmHg 53%
    15:00 +22°C° 0 mm 4 mps 742 mmHg 53%
    16:00 +22°C° 0 mm 3 mps 742 mmHg 54%
    17:00 +21°C° 0 mm 3 mps 742 mmHg 60%
    18:00 +19°C° 0 mm 2 mps 742 mmHg 67%
    19:00 +18°C° 0 mm 2 mps 742 mmHg 74%
    20:00 +17°C° 0 mm 2 mps 743 mmHg 78%
    21:00 +16°C° 0 mm 2 mps 743 mmHg 82%
    22:00 +14°C° 0 mm 2 mps 743 mmHg 86%
    23:00 +14°C° 0 mm 2 mps 743 mmHg 88%

    Mañana, 16 Agosto, Jueves

    Tiempo Temperatura Precipitaciones Viento Presión Humedad
    00:00 +13°C° 0 mm 2 mps 743 mmHg 90%
    01:00 +13°C° 0 mm 2 mps 743 mmHg 92%
    02:00 +13°C° 0 mm 2 mps 743 mmHg 92%
    03:00 +12°C° 0 mm 2 mps 743 mmHg 93%
    04:00 +12°C° 0 mm 2 mps 743 mmHg 94%
    05:00 +13°C° 0 mm 2 mps 742 mmHg 90%
    06:00 +14°C° 0 mm 2 mps 742 mmHg 86%
    07:00 +14°C° 0 mm 3 mps 742 mmHg 83%
    08:00 +16°C° 0,7 mm 3 mps 741 mmHg 83%
    09:00 +15°C° 0,7 mm 4 mps 741 mmHg 84%
    10:00 +15°C° 0,7 mm 5 mps 740 mmHg 84%
    11:00 +16°C° 1,1 mm 5 mps 740 mmHg 85%
    12:00 +17°C° 1,1 mm 5 mps 739 mmHg 86%
    13:00 +17°C° 1,1 mm 5 mps 739 mmHg 87%
    14:00 +19°C° 0,4 mm 5 mps 739 mmHg 88%
    15:00 +19°C° 0,4 mm 5 mps 739 mmHg 90%
    16:00 +20°C° 0,4 mm 5 mps 739 mmHg 91%
    17:00 +19°C° 0,6 mm 4 mps 739 mmHg 92%
    18:00 +19°C° 0,6 mm 4 mps 738 mmHg 93%
    19:00 +19°C° 0,6 mm 3 mps 738 mmHg 94%
    20:00 +18°C° 0,1 mm 3 mps 739 mmHg 95%
    21:00 +17°C° 0,1 mm 3 mps 739 mmHg 96%
    22:00 +16°C° 0,1 mm 3 mps 739 mmHg 97%
    23:00 +14°C° 0 mm 3 mps 739 mmHg 97%

    Pasado mañana, 17 Agosto, Viernes

    Tiempo Temperatura Precipitaciones Viento Presión Humedad
    00:00 +14°C° 0 mm 3 mps 739 mmHg 97%
    01:00 +13°C° 0 mm 3 mps 740 mmHg 96%
    02:00 +13°C° 0 mm 3 mps 740 mmHg 97%
    03:00 +12°C° 0 mm 3 mps 740 mmHg 97%
    04:00 +12°C° 0 mm 3 mps 741 mmHg 97%
    05:00 +12°C° 0 mm 3 mps 741 mmHg 96%
    06:00 +12°C° 0 mm 3 mps 741 mmHg 95%
    07:00 +12°C° 0 mm 3 mps 742 mmHg 95%
    08:00 +13°C° 0 mm 3 mps 742 mmHg 88%
    09:00 +16°C° 0 mm 3 mps 742 mmHg 81%
    10:00 +17°C° 0 mm 3 mps 743 mmHg 73%
    11:00 +18°C° 0 mm 4 mps 743 mmHg 66%
    12:00 +19°C° 0 mm 4 mps 743 mmHg 59%
    13:00 +21°C° 0 mm 4 mps 743 mmHg 52%
    14:00 +21°C° 0 mm 4 mps 743 mmHg 53%
    15:00 +20°C° 0 mm 4 mps 743 mmHg 54%
    16:00 +20°C° 0 mm 4 mps 743 mmHg 54%
    17:00 +19°C° 0,1 mm 3 mps 743 mmHg 62%
    18:00 +18°C° 0,1 mm 3 mps 744 mmHg 69%
    19:00 +16°C° 0,1 mm 2 mps 744 mmHg 76%
    20:00 +15°C° 0 mm 2 mps 744 mmHg 81%
    21:00 +13°C° 0 mm 2 mps 744 mmHg 85%
    22:00 +12°C° 0 mm 2 mps 745 mmHg 90%
    23:00 +10°C° 0 mm 2 mps 745 mmHg 91%

    18 Agosto, Sábado

    Tiempo Temperatura Precipitaciones Viento Presión Humedad
    00:00 +10°C° 0 mm 2 mps 745 mmHg 92%
    01:00 +9°C° 0 mm 2 mps 745 mmHg 94%
    02:00 +8°C° 0 mm 2 mps 745 mmHg 94%
    03:00 +8°C° 0 mm 2 mps 746 mmHg 95%
    04:00 +7°C° 0 mm 2 mps 746 mmHg 95%
    05:00 +8°C° 0 mm 2 mps 746 mmHg 92%
    06:00 +8°C° 0 mm 3 mps 747 mmHg 89%
    07:00 +9°C° 0 mm 3 mps 747 mmHg 86%
    08:00 +10°C° 0 mm 3 mps 747 mmHg 78%
    09:00 +12°C° 0 mm 4 mps 747 mmHg 70%
    10:00 +13°C° 0 mm 4 mps 747 mmHg 62%
    11:00 +14°C° 0 mm 4 mps 747 mmHg 60%
    12:00 +14°C° 0 mm 4 mps 747 mmHg 59%
    13:00 +15°C° 0 mm 4 mps 747 mmHg 57%
    14:00 +15°C° 0 mm 4 mps 747 mmHg 59%
    15:00 +15°C° 0 mm 4 mps 747 mmHg 60%
    16:00 +15°C° 0 mm 4 mps 747 mmHg 62%
    17:00 +14°C° 0 mm 3 mps 747 mmHg 67%
    18:00 +13°C° 0 mm 3 mps 747 mmHg 72%
    19:00 +14°C° 0 mm 2 mps 748 mmHg 77%
    20:00 +12°C° 0 mm 2 mps 748 mmHg 80%
    21:00 +10°C° 0 mm 2 mps 748 mmHg 84%
    22:00 +9°C° 0 mm 2 mps 748 mmHg 87%
    23:00 +8°C° 0 mm 2 mps 748 mmHg 89%

    19 Agosto, Domingo

    Tiempo Temperatura Precipitaciones Viento Presión Humedad
    00:00 +8°C° 0 mm 2 mps 748 mmHg 90%
    01:00 +7°C° 0 mm 2 mps 748 mmHg 91%
    02:00 +7°C° 0 mm 2 mps 749 mmHg 91%
    03:00 +6°C° 0 mm 2 mps 749 mmHg 92%
    04:00 +7°C° 0 mm 1 mps 749 mmHg 93%
    05:00 +8°C° 0 mm 1 mps 749 mmHg 88%
    06:00 +9°C° 0 mm 1 mps 749 mmHg 84%
    07:00 +9°C° 0 mm 2 mps 750 mmHg 80%
    08:00 +12°C° 0 mm 2 mps 750 mmHg 72%
    09:00 +14°C° 0 mm 2 mps 749 mmHg 65%
    10:00 +16°C° 0 mm 2 mps 749 mmHg 57%
    11:00 +17°C° 0 mm 2 mps 749 mmHg 54%
    12:00 +18°C° 0 mm 2 mps 749 mmHg 50%
    13:00 +19°C° 0 mm 2 mps 748 mmHg 47%
    14:00 +19°C° 0 mm 2 mps 748 mmHg 47%
    15:00 +19°C° 0 mm 2 mps 748 mmHg 47%
    16:00 +19°C° 0 mm 2 mps 748 mmHg 48%
    17:00 +18°C° 0 mm 2 mps 748 mmHg 55%
    18:00 +16°C° 0 mm 1 mps 747 mmHg 62%
    19:00 +15°C° 0 mm 1 mps 747 mmHg 69%
    20:00 +14°C° 0 mm 1 mps 747 mmHg 72%
    21:00 +12°C° 0 mm 1 mps 747 mmHg 75%
    22:00 +11°C° 0 mm 1 mps 747 mmHg 78%
    23:00 +10°C° 0 mm 1 mps 747 mmHg 80%

    20 Agosto, Lunes

    Tiempo Temperatura Precipitaciones Viento Presión Humedad
    00:00 +10°C° 0 mm 1 mps 747 mmHg 82%
    01:00 +8°C° 0 mm 0 mps 747 mmHg 84%
    02:00 +8°C° 0 mm 0 mps 747 mmHg 85%
    03:00 +9°C° 0 mm 1 mps 747 mmHg 86%
    04:00 +8°C° 0 mm 1 mps 747 mmHg 87%
    05:00 +9°C° 0 mm 1 mps 747 mmHg 83%
    06:00 +11°C° 0 mm 1 mps 747 mmHg 80%
    07:00 +11°C° 0 mm 0 mps 747 mmHg 77%
    08:00 +14°C° 0 mm 1 mps 747 mmHg 71%
    09:00 +16°C° 0 mm 1 mps 747 mmHg 64%
    10:00 +19°C° 0 mm 1 mps 746 mmHg 58%
    11:00 +20°C° 0 mm 1 mps 746 mmHg 55%
    12:00 +21°C° 0 mm 1 mps 746 mmHg 52%
    13:00 +22°C° 0 mm 1 mps 745 mmHg 49%
    14:00 +22°C° 0 mm 1 mps 745 mmHg 49%
    15:00 +22°C° 0 mm 1 mps 745 mmHg 50%
    16:00 +22°C° 0 mm 1 mps 745 mmHg 51%
    17:00 +20°C° 0 mm 1 mps 744 mmHg 57%
    18:00 +19°C° 0 mm 1 mps 744 mmHg 62%
    19:00 +16°C° 0 mm 0 mps 744 mmHg 68%
    20:00 +14°C° 0 mm 0 mps 744 mmHg 71%
    21:00 +14°C° 0 mm 1 mps 744 mmHg 75%
    22:00 +13°C° 0 mm 1 mps 744 mmHg 79%
    23:00 +12°C° 0 mm 1 mps 744 mmHg 81%
    Mostrar más